Home > Weather > Sierra Vista > Past weeks

Flag for USA Past Weather in Sierra Vista, Arizona, USA — Yesterday and Last 2 Weeks

Now
74 °F

Passing clouds.


Feels Like: 76 °F
Forecast: 70 / 92 °F
Wind: 6 mph from Northeast

Location: Fort Huachuca

Current Time: Jul 28, 2016 at 7:33:07 AM

Latest Report: Jul 28, 2016 at 6:58 AM


Visibility: 10 mi

Pressure: 29.96 "Hg (25.53 "Hg at 1390m altitude)

Humidity: 64%

Dew Point: 61 °F

Location of Sierra VistaLocation

Past Weather in Sierra Vista — Graph

°F

Sierra Vista Temperature Yesterday

Maximum temperature yesterday: 95 °F (at 3:47 PM)
Minimum temperature yesterday: 70 °F (at 5:58 AM)
Average temperature yesterday: 78 °F

High & Low Weather Summary for the Past Weeks

 TemperatureHumidityPressure
High97 °F (Jul 14, 3:58 PM)94% (Jul 18, 2:01 AM)30.37 "Hg (Jul 18, 2:01 AM)
Low64 °F (Jul 18, 2:01 AM)16% (Jul 22, 4:58 PM)29.78 "Hg (Jul 16, 3:58 PM)
Average81 °F45%29.95 "Hg
* Reported Jul 13 5:58 AM — Jul 28 5:58 AM, Sierra Vista, Weather by CustomWeather, © 2016

Note: Actual official high and low records may vary slightly from our data, if they occured in-between our weather recording intervals... More about our weather records

Advertising

Sierra Vista Weather History for the Previous 24 Hours

Scroll right to see more
 ConditionsComfort  
Time TempWeatherWind HumidityBarometerVisibility
5:58 AM
Thu, Jul 28
70 °FSunny.No wind76%29.95 "Hg10 mi
4:58 AM68 °FClear.1 mph87%29.95 "Hg10 mi
4:02 AM70 °FPassing clouds.9 mph83%30.12 "Hg10 mi
3:58 AM70 °FPassing clouds.9 mph86%29.91 "Hg10 mi
2:58 AM69 °FPassing clouds.5 mph89%29.90 "Hg10 mi
1:58 AM71 °FOvercast.No wind85%29.90 "Hg10 mi
12:58 AM71 °FOvercast.5 mph78%29.90 "Hg10 mi
11:58 PM
Wed, Jul 27
71 °FOvercast.No wind78%29.91 "Hg10 mi
10:58 PM72 °FMostly cloudy.16 mph71%29.86 "Hg10 mi
9:58 PM71 °FPassing clouds.1 mph78%29.94 "Hg10 mi
8:58 PM73 °FLight rain. Passing clouds.10 mph70%29.90 "Hg8 mi
8:04 PM72 °FPassing clouds.10 mph78%30.15 "Hg8 mi
7:58 PM73 °FLight rain. Partly cloudy.8 mph78%29.93 "Hg8 mi
6:58 PM77 °FThunderstorms. Partly sunny.7 mph59%29.93 "Hg9 mi
5:58 PM78 °FLight rain. Broken clouds.7 mph68%29.86 "Hg7 mi
4:58 PM73 °FThundershowers. Broken clouds.17 mph69%29.87 "Hg10 mi
3:58 PM79 °FStrong thunderstorms. Mostly cloudy.24 mph61%29.87 "Hg3 mi
3:47 PM95 °FThunderstorms. Broken clouds.13 mph26%30.06 "Hg10 mi
2:58 PM93 °FScattered clouds.3 mph29%29.82 "Hg10 mi
1:58 PM93 °FSunny.6 mph28%29.86 "Hg10 mi
12:58 PM89 °FSunny.2 mph32%29.89 "Hg10 mi
11:58 AM87 °FScattered clouds.No wind33%29.93 "Hg10 mi
10:58 AM84 °FMostly cloudy.3 mph39%29.94 "Hg9 mi
9:58 AM83 °FOvercast.3 mph45%29.95 "Hg9 mi
8:58 AM81 °FPartly sunny.1 mph46%29.95 "Hg10 mi
7:58 AM78 °FPartly sunny.No wind47%29.97 "Hg9 mi
Weather by CustomWeather, © 2016

See weather overviewHow to use our weather pages